Volver al catálogo

COSMOS 1771

ActivoMilitarLEO
NORAD 16917·PAYLOAD·🇷🇺 Russia

Lanzado Aug 20, 1986 desde Baikonur Cosmodrome

Loading…

Próximos Pases (próximas 24 horas)

TLE

ActualizadoSource: Space-Track

Época: Sep 14, 2026, 00:55 UTC

1 16917U 86062A   26257.03883343 -.00000054  00000-0  31439-4 0  9994
2 16917  64.9820 122.6015 0067434 270.2779  89.0553 13.82652421 24066

Sigue COSMOS 1771 en tiempo real con AllMySat

Download on the App Store